Other Public Products
Issued by NWS Charleston, SC

Home | Current Version | Previous Version | Text Only | Print | Product List | Glossary On
Versions: 1 2 3 4 5 6 7 8 9 10 11 12 13 14 15 16 17 18 19 20 21 22 23 24 25 26 27 28 29 30 31 32 33 34 35 36 37 38 39 40 41 42 43 44 45 46 47 48 49 50
181
FPUS82 KCHS 160727
OPUCHS

TEST...KCHS/KSAV Gateway Observations...TEST
National Weather Service Charleston SC
200 AM EST TUE JAN 16 2018

NOTE: "fair" indicates few or no clouds below 12,000 feet with no
significant weather and/or obstructions to visibility.

SCZ050-WAZ558-NCZ071-TXZ119-213-PAZ071-DCZ001-FLZ074-172-MI076-
NYZ176-178-MAZ016-IL014-TNZ027-NJZ106-GAZ044-MD014-160800-

...Gateway Observations for Charleston International...

CITY           SKY/WX    TMP DP  RH WIND       PRES   REMARKS
Chas Airport   FAIR      28  21  75 CALM      30.44F
Seattle        LGT RAIN  51  44  77 W3        29.98R
Charlotte      FAIR      23  16  74 CALM      30.44R
Dallas DFW     FLURRIES  28  13  53 N26       30.63R WCI  13
Dallas Love    CLOUDY    28  13  53 N18       30.66R WCI  15
Philladelphia  CLOUDY    30  23  75 CALM      30.49S
Wash National  CLOUDY    31  29  92 S3        30.47F
Baltimore      CLOUDY    29  25  85 CALM      30.45F
Miami          FAIR      68  56  65 NE10      30.23F
Detroit        CLOUDY    16  13  88 S9        30.30R WCI   4
Newark         MOCLDY    23  17  78 N5        30.49S WCI  17
Laguardia      CLOUDY    25  17  72 E9        30.49R WCI  15
J F K          CLOUDY    25  20  81 NE9       30.50F WCI  15
Boston Logan   CLOUDY    21  12  68 N8        30.51F WCI  11
Ft. Lauderdale FAIR      66  57  72 NE13G22   30.23S
Chicago O`Hare LGT SNOW   9   5  84 W9        30.32S FOG     WCI  -4
Chicago Midway LGT SNOW   8   3  80 W12       30.35R VSB 1   WCI  -7
Houston Bush   LGT RAIN  54  50  86 N10       30.34R
Houston Hobby  CLOUDY    53  52  96 E5        30.31S
Nashville      CLOUDY    24  16  71 N10       30.45S WCI  14
Atlanta        FAIR      35  24  64 CALM      30.39F

$$

GAZ044-118-TXZ119-213-NCZ071-DCZ001-MDZ014-506-PAZ021-071-NJZ106-
NYZ176-178-MAZ106-OHZ011-021-055-MIZ076-KYZ091-ILZ014-INZ047-
MNZ060-ONZ431-160800-

...Gateway Observations for Savannah International...

CITY           SKY/WX    TMP DP  RH WIND       PRES   REMARKS
Savannah Arpt  FAIR      33  27  78 N3        30.44S
Atlanta        FAIR      35  24  64 CALM      30.39F
Charlotte      FAIR      23  16  74 CALM      30.44R
Dallas DFW     FLURRIES  28  13  53 N26       30.63R WCI  13
Houston Bush   LGT RAIN  54  50  86 N10       30.34R
Wash National  CLOUDY    31  29  92 S3        30.47F
Wash Dulles    CLOUDY    27  26  96 S5        30.45S WCI  22
Baltimore      CLOUDY    29  25  85 CALM      30.45F
Philadelphia   CLOUDY    30  23  75 CALM      30.49S
Newark         MOCLDY    23  17  78 N5        30.49S WCI  17
Laguardia      CLOUDY    25  17  72 E9        30.49R WCI  15
J F K          CLOUDY    25  20  81 NE9       30.50F WCI  15
Boston         CLOUDY    21  12  68 N8        30.51F WCI  11
Pittsburg      FLURRIES  26  24  92 SW6       30.29R WCI  19
Akron          CLOUDY    25  17  72 W9        30.29R WCI  15
Cleveland      MOCLDY    23  19  85 S5        30.33R WCI  17
Cincinnati     CLOUDY    13   7  77 W13       30.41R WCI  -2
Columbus       LGT SNOW  20  19  95 NW14      30.35R WCI   7
Detroit        CLOUDY    16  13  88 S9        30.30R WCI   4
Chicago O`Hare LGT SNOW   9   5  84 W9        30.32S FOG     WCI  -4
Minneapolis    MOCLDY     0  -4  83 NW9       30.59R WCI -15
Indianapolis   FAIR       1  -4  79 W12       30.44R WCI -16
Toronto Canada FLURRIES  18  14  86 N8        30.29S WCI   7

$$




USA.gov is the U.S. government's official web portal to all federal, state and local government web resources and services.